Location: Marsån
(66.4167°N, 22.2833°E)
Time: 11:14:46
(UTC+00:00)

Cosmos 2266 Rocket - Pass Details

Date: 24 February 2024
Orbit: 933 x 1008 km, 82.9° (Epoch: 15 April)

Event Time Altitude Azimuth Distance (km) Brightness Sun altitude
Rises 18:48:54 0° 341° (NNW) 3,737 7.7 -20.8°
Reaches altitude 10° 18:51:28 10° 342° (NNW) 2,776 7.0 -21.0°
Maximum altitude 18:57:52 84° 72° (ENE) 998 3.9 -21.6°
Enters shadow 19:00:56 33° 158° (SSE) 1,590 4.7 -21.8°
